Location: Drummondville
(45.8830°N, 72.4830°W)
Time: 11:20:33
(UTC-05:00)

OTV 5 (USA 277) - Pass Details

Date: 19 November 2017
Orbit: 404 x 417 km, 43.0° (Epoch: 07 September)

Event Time Altitude Azimuth Distance (km) Brightness Sun altitude
Exits shadow 05:48:41 10° 240° (WSW) 1,427 ? -11.7°
Maximum altitude 05:50:17 14° 210° (SSW) 1,253 ? -11.4°
Drops below altitude 10° 05:52:01 10° 178° (S) 1,450 ? -11.1°
Sets 05:54:52 0° 151° (SSE) 2,305 ? -10.6°
